Change the Weather History Date:

Monday, December 3, 2012

  Actual Average (KMCB) Record (KMCB)
Temperature  
Mean Temperature 65 °F -  
Max Temperature 73 °F 64 °F 81 °F (1978)
Min Temperature 57 °F 40 °F 25 °F (1974)
Growing Degree Days 15 (Base 50)    
Moisture  
Dew Point 61 °F    
Average Humidity 88    
Maximum Humidity 100    
Minimum Humidity 65    
Precipitation  
Precipitation 0.00 in - - ()
Sea Level Pressure  
Sea Level Pressure 30.19 in    
Wind  
Wind Speed 5 mph (SSE)    
Max Wind Speed 14 mph    
Max Gust Speed 20 mph    
Visibility 7 miles    
Events Fog    
Averages and records for this station are not official NWS values.
T = Trace of Precipitation, MM = Missing Value Source: NWS Daily Summary

Daily Weather History Graph

Daily Weather History Graph

Search for Another Location

Airport or City:

Trip Planner

Search our weather history database for the weather conditions in past years. The results will help you decide how hot, cold, wet, or windy it might be!

Date:

Astronomy

Dec. 03, 2012 Rise Set
Actual Time 6:45 AM CST 4:57 PM CST
Civil Twilight 6:18 AM CST 5:24 PM CST
Nautical Twilight 5:48 AM CST 5:54 PM CST
Astronomical Twilight 5:19 AM CST 6:24 PM CST
Moon 9:34 PM CST (12/3) 10:17 AM CST (12/3)
Length of Visible Light 11h 05m
Length of Day
10h 12m
Waning Gibbous, 78% of the Moon is Illuminated
Dec 3
Waning Gibbous
Dec 6
Last Quarter
Dec 13
New
Dec 19
First Quarter
Dec 28
Full

Hourly Weather History & Observations

Time (CST) Temp. Dew Point Humidity Pressure Visibility Wind Dir Wind Speed Gust Speed Precip Events Conditions
12:15 AM 60.8 °F 59.0 °F 94% 30.21 in 10.0 mi SSE 6.9 mph - N/A   Clear
12:35 AM 60.8 °F 59.0 °F 94% 30.21 in 10.0 mi SSE 6.9 mph - N/A   Clear
12:55 AM 60.8 °F 59.0 °F 94% 30.21 in 10.0 mi SSE 4.6 mph - N/A   Clear
1:15 AM 60.8 °F 59.0 °F 94% 30.22 in 10.0 mi SSE 4.6 mph - N/A   Clear
1:35 AM 59.0 °F 57.2 °F 94% 30.22 in 10.0 mi South 3.5 mph - N/A   Clear
1:55 AM 59.0 °F 57.2 °F 94% 30.22 in 8.0 mi Calm Calm - N/A   Clear
2:15 AM 57.2 °F 57.2 °F 100% 30.21 in 7.0 mi SSE 3.5 mph - N/A   Clear
2:35 AM 57.2 °F 57.2 °F 100% 30.21 in 1.8 mi Calm Calm - N/A   Clear
2:55 AM 57.2 °F 57.2 °F 100% 30.21 in 1.5 mi South 3.5 mph - N/A   Clear
3:15 AM 57.2 °F 57.2 °F 100% 30.21 in 5.0 mi Calm Calm - N/A   Clear
3:35 AM 57.2 °F 57.2 °F 100% 30.21 in 4.0 mi Calm Calm - N/A   Clear
3:55 AM 57.2 °F 57.2 °F 100% 30.21 in 2.0 mi SE 3.5 mph - N/A   Mostly Cloudy
4:15 AM 57.2 °F 57.2 °F 100% 30.20 in 0.2 mi SSE 4.6 mph - N/A Fog Fog
4:35 AM 59.0 °F 59.0 °F 100% 30.20 in 0.2 mi SE 3.5 mph - N/A Fog Fog
4:55 AM 59.0 °F 59.0 °F 100% 30.20 in 0.2 mi SE 3.5 mph - N/A Fog Fog
5:15 AM 59.0 °F 59.0 °F 100% 30.20 in 0.2 mi SE 4.6 mph - N/A Fog Fog
5:55 AM 59.0 °F 59.0 °F 100% 30.21 in 0.8 mi SE 3.5 mph - N/A   Overcast
6:15 AM 59.0 °F 59.0 °F 100% 30.22 in 0.8 mi SSE 4.6 mph - N/A   Overcast
6:35 AM 59.0 °F 59.0 °F 100% 30.22 in 1.2 mi SE 3.5 mph - N/A   Overcast
7:15 AM 60.8 °F 60.8 °F 100% 30.23 in 0.5 mi SE 3.5 mph - N/A Fog Fog
7:55 AM 60.8 °F 60.8 °F 100% 30.24 in 0.5 mi SSE 4.6 mph - N/A Fog Fog
8:15 AM 60.8 °F 60.8 °F 100% 30.24 in 1.0 mi SSE 5.8 mph - N/A   Overcast
8:35 AM 60.8 °F 60.8 °F 100% 30.24 in 2.0 mi SE 4.6 mph - N/A   Overcast
9:15 AM 62.6 °F 62.6 °F 100% 30.24 in 7.0 mi SE 4.6 mph - N/A   Mostly Cloudy
9:35 AM 66.2 °F 62.6 °F 88% 30.25 in 8.0 mi SE 6.9 mph - N/A   Partly Cloudy
9:55 AM 66.2 °F 62.6 °F 88% 30.24 in 9.0 mi SE 6.9 mph - N/A   Clear
10:35 AM 69.8 °F 62.6 °F 78% 30.23 in 10.0 mi South 13.8 mph 19.6 mph N/A   Partly Cloudy
10:55 AM 71.6 °F 62.6 °F 73% 30.22 in 10.0 mi SSE 11.5 mph 18.4 mph N/A   Mostly Cloudy
11:15 AM 71.6 °F 62.6 °F 73% 30.22 in 10.0 mi South 11.5 mph 19.6 mph N/A   Mostly Cloudy
11:55 AM 71.6 °F 62.6 °F 73% 30.20 in 10.0 mi SSE 10.4 mph - N/A   Mostly Cloudy
12:15 PM 73.4 °F 62.6 °F 69% 30.19 in 10.0 mi SSE 10.4 mph - N/A   Mostly Cloudy
12:35 PM 73.4 °F 62.6 °F 69% 30.18 in 9.0 mi SSE 9.2 mph - N/A   Mostly Cloudy
12:55 PM 73.4 °F 62.6 °F 69% 30.17 in 10.0 mi SE 10.4 mph 16.1 mph N/A   Mostly Cloudy
1:15 PM 73.4 °F 62.6 °F 69% 30.16 in 10.0 mi South 10.4 mph - N/A   Mostly Cloudy
1:35 PM 73.4 °F 62.6 °F 69% 30.16 in 10.0 mi SSE 8.1 mph - N/A   Mostly Cloudy
1:55 PM 73.4 °F 62.6 °F 69% 30.15 in 4.0 mi SSE 8.1 mph - N/A   Haze
2:15 PM 73.4 °F 60.8 °F 65% 30.15 in 5.0 mi South 10.4 mph - N/A   Haze
2:35 PM 73.4 °F 62.6 °F 69% 30.15 in 4.0 mi SE 5.8 mph - N/A   Haze
2:55 PM 73.4 °F 62.6 °F 69% 30.15 in 10.0 mi SE 4.6 mph - N/A   Mostly Cloudy
3:15 PM 73.4 °F 60.8 °F 65% 30.16 in 10.0 mi SSE 6.9 mph - N/A   Mostly Cloudy
3:35 PM 73.4 °F 60.8 °F 65% 30.16 in 10.0 mi SSE 8.1 mph - N/A   Overcast
3:55 PM 73.4 °F 60.8 °F 65% 30.15 in 10.0 mi SSE 4.6 mph - N/A   Mostly Cloudy
4:15 PM 71.6 °F 60.8 °F 69% 30.15 in 10.0 mi SE 6.9 mph - N/A   Scattered Clouds
4:35 PM 71.6 °F 60.8 °F 69% 30.15 in 10.0 mi SE 3.5 mph - N/A   Scattered Clouds
4:55 PM 69.8 °F 60.8 °F 73% 30.15 in 10.0 mi ESE 4.6 mph - N/A   Partly Cloudy
5:15 PM 68.0 °F 60.8 °F 78% 30.16 in 10.0 mi Calm Calm - N/A   Clear
5:55 PM 66.2 °F 60.8 °F 83% 30.16 in 10.0 mi Calm Calm - N/A   Clear
6:15 PM 66.2 °F 60.8 °F 83% 30.16 in 10.0 mi SE 3.5 mph - N/A   Clear
6:35 PM 64.4 °F 60.8 °F 88% 30.16 in 10.0 mi SE 4.6 mph - N/A   Clear
6:55 PM 64.4 °F 60.8 °F 88% 30.16 in 10.0 mi Calm Calm - N/A   Clear
7:15 PM 64.4 °F 60.8 °F 88% 30.18 in 10.0 mi SE 4.6 mph - N/A   Clear
7:35 PM 64.4 °F 60.8 °F 88% 30.18 in 10.0 mi SE 5.8 mph - N/A   Clear
7:55 PM 64.4 °F 60.8 °F 88% 30.18 in 10.0 mi SSE 6.9 mph - N/A   Clear
8:15 PM 64.4 °F 60.8 °F 88% 30.17 in 10.0 mi SE 3.5 mph - N/A   Clear
8:35 PM 64.4 °F 60.8 °F 88% 30.18 in 10.0 mi SSE 6.9 mph - N/A   Clear
8:55 PM 64.4 °F 62.6 °F 94% 30.17 in 10.0 mi SSE 5.8 mph - N/A   Clear
9:15 PM 64.4 °F 62.6 °F 94% 30.18 in 10.0 mi SSE 6.9 mph - N/A   Clear
9:35 PM 64.4 °F 62.6 °F 94% 30.18 in 10.0 mi SSE 6.9 mph - N/A   Partly Cloudy
9:55 PM 64.4 °F 62.6 °F 94% 30.18 in 10.0 mi SE 8.1 mph - N/A   Scattered Clouds
10:15 PM 64.4 °F 62.6 °F 94% 30.18 in 8.0 mi SSE 9.2 mph - N/A   Mostly Cloudy
10:35 PM 64.4 °F 64.4 °F 100% 30.18 in 10.0 mi SSE 10.4 mph - N/A   Mostly Cloudy
10:55 PM 64.4 °F 64.4 °F 100% 30.17 in 10.0 mi SSE 10.4 mph - N/A   Overcast
11:15 PM 64.4 °F 64.4 °F 100% 30.19 in 10.0 mi South 6.9 mph - N/A   Mostly Cloudy
11:35 PM 64.4 °F 64.4 °F 100% 30.18 in 10.0 mi SSE 8.1 mph - N/A   Mostly Cloudy
11:55 PM 64.4 °F 64.4 °F 100% 30.18 in 10.0 mi SSE 6.9 mph - N/A   Mostly Cloudy